Flag for Germany Weather past 2 weeks in Bietigheim-Bissingen, Baden-Württemberg, Germany

Now
67 °F

Overcast.


Feels Like: 67 °F
Forecast: 61 / 90 °F
Wind: 1 mph from South

Location: Stuttgart-Echterdingen

Current Time: Aug 28, 2015 at 8:11:56 AM

Latest Report: Aug 28, 2015 at 7:00 AM


Visibility: 37 mi

Pressure: 29.98 "Hg

Humidity: 82%

Dew point: 61 °F

Location of Bietigheim-BissingenLocation

Historic Weather in Bietigheim-Bissingen — Graph

°F

Bietigheim-Bissingen temperature yesterday

Maximum temperature yesterday: 88 °F (at 6:00 PM)
Minimum temperature yesterday: 56 °F (at 7:00 AM)
Average temperature yesterday: 73 °F

Past Weeks' High & Low Weather Summary

 TemperatureHumidityPressure
High93 °F (Aug 13, 4:00 PM)97% (Aug 20, 8:00 AM)30.28 "Hg (Aug 20, 8:00 AM)
Low48 °F (Aug 26, 7:00 AM)23% (Aug 13, 5:00 PM)29.67 "Hg (Aug 24, 2:00 PM)
Average65 °F69%29.97 "Hg
* Reported Aug 13 5:00 AM — Aug 28 5:00 AM, Bietigheim-Bissingen, Weather by CustomWeather, © 2015

Note: Actual official high and low records may vary slightly from our data, if they occured in-between our weather recording intervals... More about our weather records

Advertising

Bietigheim-Bissingen weather history for previous 24 hours

 ConditionsComfort  
Time TempWeatherWind HumidityBarometerVisibility
5:00 AM
Fri, Aug 28
67 °FOvercast.1 mph80%29.98 "Hg31 mi
4:00 AM69 °FOvercast.1 mph76%29.96 "Hg31 mi
3:00 AM70 °FOvercast.5 mph73%29.95 "Hg37 mi
2:00 AM72 °FOvercast.8 mph60%29.91 "Hg37 mi
10:00 PM
Thu, Aug 27
74 °FPassing clouds.2 mph51%29.84 "Hg37 mi
9:00 PM79 °FPassing clouds.2 mph41%29.81 "Hg43 mi
8:00 PM82 °FOvercast.3 mph37%29.80 "Hg43 mi
7:00 PM86 °FPartly sunny.2 mph29%29.79 "Hg43 mi
6:00 PM88 °FPartly sunny.3 mph27%29.79 "Hg43 mi
4:00 PM86 °FOvercast.5 mph28%29.81 "Hg43 mi
3:00 PM87 °FOvercast.6 mph27%29.82 "Hg47 mi
2:00 PM85 °FOvercast.6 mph31%29.84 "Hg47 mi
1:00 PM82 °FPartly sunny.3 mph36%29.87 "Hg47 mi
12:00 PM80 °FScattered clouds.5 mph39%29.89 "Hg47 mi
11:00 AM78 °FPartly sunny.3 mph44%29.91 "Hg47 mi
10:00 AM74 °FPartly sunny.1 mph51%29.92 "Hg47 mi
9:00 AM64 °FPartly sunny.1 mph80%29.95 "Hg47 mi
8:00 AM60 °FPartly sunny.2 mph83%29.95 "Hg47 mi
Weather by CustomWeather, © 2015

See weather overviewHow to use our weather pages